| time (UTC) | temp C | wind direction | speed KPH | gust KPH | rain 1hr cm | rain 24hr cm | rain mn cm | humidity % | barometer mb |
| 20260510060009 | 13 | 309 | 0.0 | 1.6 | 0.00 | 0.23 | 0.00 | 82 | 1010.2 |
| 20260510054506 | 13 | 309 | 0.0 | 3.2 | 0.00 | 0.23 | 0.00 | 82 | 1010.1 |
| 20260510053012 | 12 | 292 | 0.0 | 3.2 | 0.00 | 0.23 | 0.00 | 83 | 1010.2 |
| 20260510051502 | 12 | 302 | 0.0 | 1.6 | 0.00 | 0.23 | 0.00 | 84 | 1010.3 |
| 20260510044607 | 12 | 315 | 0.0 | 0.0 | 0.00 | 0.23 | 0.00 | 85 | 1010.2 |
| 20260510043057 | 11 | 315 | 0.0 | 0.0 | 0.00 | 0.23 | 0.00 | 86 | 1010.2 |
| 20260510041554 | 11 | 315 | 0.0 | 0.0 | 0.00 | 0.23 | 0.00 | 85 | 1010.1 |
| 20260510040052 | 11 | 315 | 0.0 | 0.0 | 0.00 | 0.23 | 0.00 | 85 | 1009.9 |
| 20260510034612 | 12 | 315 | 0.0 | 0.0 | 0.00 | 0.23 | 0.23 | 84 | 1009.9 |
| 20260510033057 | 12 | 315 | 0.0 | 0.0 | 0.00 | 0.23 | 0.23 | 82 | 1009.6 |
| 20260510031551 | 13 | 315 | 0.0 | 0.0 | 0.00 | 0.23 | 0.23 | 78 | 1009.4 |
| 20260510030053 | 13 | 315 | 0.0 | 3.2 | 0.00 | 0.23 | 0.23 | 80 | 1009.3 |
| 20260510024548 | 12 | 288 | 0.0 | 3.2 | 0.00 | 0.23 | 0.23 | 84 | 1009.3 |
| 20260510023048 | 12 | 269 | 0.0 | 0.0 | 0.00 | 0.23 | 0.23 | 83 | 1009.3 |
| 20260510021558 | 13 | 269 | 0.0 | 0.0 | 0.00 | 0.23 | 0.23 | 81 | 1009.1 |
| 20260510020047 | 13 | 269 | 0.0 | 0.0 | 0.00 | 0.23 | 0.23 | 77 | 1009.0 |
| 20260510014551 | 15 | 269 | 0.0 | 0.0 | 0.00 | 0.23 | 0.23 | 74 | 1008.8 |
| 20260510013048 | 15 | 269 | 0.0 | 3.2 | 0.00 | 0.23 | 0.23 | 73 | 1008.4 |
| 20260510011546 | 15 | 269 | 0.0 | 1.6 | 0.00 | 0.23 | 0.23 | 71 | 1008.2 |
| 20260510010144 | 16 | 269 | 0.0 | 4.8 | 0.00 | 0.23 | 0.23 | 71 | 1008.2 |
| 20260510004544 | 16 | 284 | 0.0 | 3.2 | 0.00 | 0.23 | 0.23 | 69 | 1008.0 |
| 20260510003058 | 16 | 284 | 0.0 | 1.6 | 0.00 | 0.23 | 0.23 | 67 | 1007.9 |
| 20260510001543 | 17 | 284 | 0.0 | 4.8 | 0.00 | 0.23 | 0.23 | 65 | 1007.6 |
| 20260510000046 | 17 | 61 | 0.0 | 3.2 | 0.00 | 0.23 | 0.23 | 64 | 1007.4 |
| 20260509234541 | 18 | 42 | 0.0 | 3.2 | 0.00 | 0.23 | 0.23 | 61 | 1007.3 |
| 20260509233041 | 18 | 355 | 0.0 | 6.4 | 0.00 | 0.23 | 0.23 | 60 | 1007.3 |
| 20260509231541 | 18 | 25 | 0.0 | 6.4 | 0.00 | 0.23 | 0.23 | 59 | 1007.1 |
| 20260509230039 | 19 | 355 | 3.2 | 14.5 | 0.00 | 0.23 | 0.23 | 57 | 1007.2 |
| 20260509224538 | 19 | 68 | 1.6 | 4.8 | 0.00 | 0.23 | 0.23 | 58 | 1007.4 |
| 20260509223038 | 20 | 40 | 3.2 | 9.7 | 0.00 | 0.23 | 0.23 | 58 | 1007.6 |
| 20260509221536 | 20 | 252 | 0.0 | 9.7 | 0.00 | 0.23 | 0.23 | 60 | 1007.6 |
| 20260509220040 | 20 | 347 | 1.6 | 6.4 | 0.00 | 0.23 | 0.23 | 56 | 1007.7 |
| 20260509214533 | 19 | 40 | 3.2 | 8.0 | 0.00 | 0.23 | 0.23 | 58 | 1007.7 |
| 20260509213033 | 21 | 27 | 1.6 | 9.7 | 0.00 | 0.23 | 0.23 | 57 | 1007.6 |
| 20260509211534 | 21 | 343 | 3.2 | 6.4 | 0.00 | 0.23 | 0.23 | 57 | 1007.7 |
| 20260509210032 | 19 | 347 | 1.6 | 8.0 | 0.00 | 0.23 | 0.23 | 58 | 1007.6 |
| 20260509204531 | 20 | 45 | 1.6 | 12.9 | 0.00 | 0.23 | 0.23 | 57 | 1007.7 |
| 20260509203036 | 20 | 335 | 3.2 | 8.0 | 0.00 | 0.23 | 0.23 | 58 | 1007.8 |
| 20260509201529 | 18 | 82 | 1.6 | 16.1 | 0.00 | 0.23 | 0.23 | 61 | 1008.0 |
| 20260509200036 | 20 | 24 | 1.6 | 4.8 | 0.00 | 0.23 | 0.23 | 60 | 1008.0 |
| 20260509194539 | 20 | 336 | 3.2 | 6.4 | 0.00 | 0.23 | 0.23 | 60 | 1008.2 |
| 20260509193025 | 20 | 22 | 3.2 | 9.7 | 0.00 | 0.23 | 0.23 | 62 | 1008.2 |
| 20260509191521 | 19 | 338 | 1.6 | 6.4 | 0.00 | 0.23 | 0.23 | 64 | 1008.3 |
| 20260509190017 | 18 | 34 | 1.6 | 4.8 | 0.00 | 0.23 | 0.23 | 69 | 1008.4 |
| 20260509184512 | 16 | 41 | 0.0 | 4.8 | 0.00 | 0.23 | 0.23 | 75 | 1008.5 |
| 20260509183014 | 16 | 36 | 0.0 | 4.8 | 0.00 | 0.23 | 0.23 | 75 | 1008.4 |
| 20260509181512 | 16 | 47 | 0.0 | 4.8 | 0.00 | 0.23 | 0.23 | 78 | 1008.4 |
| 20260509180007 | 15 | 58 | 1.6 | 4.8 | 0.00 | 0.23 | 0.23 | 80 | 1008.5 |
| 20260509174511 | 15 | 50 | 0.0 | 3.2 | 0.00 | 0.23 | 0.23 | 82 | 1008.6 |
| 20260509173005 | 15 | 58 | 0.0 | 3.2 | 0.00 | 0.23 | 0.23 | 83 | 1008.6 |
| 20260509171502 | 14 | 48 | 0.0 | 3.2 | 0.00 | 0.23 | 0.23 | 83 | 1008.8 |
| 20260509170001 | 13 | 48 | 0.0 | 1.6 | 0.00 | 0.23 | 0.23 | 84 | 1009.0 |
| 20260509164602 | 14 | 48 | 0.0 | 4.8 | 0.00 | 0.23 | 0.23 | 82 | 1009.0 |
| 20260509163105 | 15 | 54 | 0.0 | 3.2 | 0.00 | 0.23 | 0.23 | 82 | 1008.8 |
| 20260509161603 | 14 | 269 | 0.0 | 3.2 | 0.00 | 0.23 | 0.23 | 82 | 1008.8 |
| 20260509160055 | 13 | 269 | 0.0 | 3.2 | 0.00 | 0.23 | 0.23 | 84 | 1008.9 |
| 20260509154554 | 13 | 269 | 0.0 | 4.8 | 0.03 | 0.23 | 0.23 | 83 | 1009.0 |
| 20260509153056 | 13 | 263 | 0.0 | 4.8 | 0.03 | 0.23 | 0.23 | 83 | 1009.2 |
| 20260509151556 | 13 | 199 | 0.0 | 1.6 | 0.03 | 0.23 | 0.23 | 86 | 1009.2 |
| 20260509150049 | 12 | 233 | 0.0 | 0.0 | 0.03 | 0.23 | 0.23 | 86 | 1009.4 |
| 20260509144548 | 12 | 163 | 0.0 | 3.2 | 0.00 | 0.20 | 0.20 | 85 | 1009.4 |
| 20260509143057 | 12 | 91 | 0.0 | 0.0 | 0.00 | 0.20 | 0.20 | 87 | 1009.4 |
| 20260509141552 | 12 | 91 | 1.6 | 3.2 | 0.03 | 0.20 | 0.20 | 86 | 1009.2 |
| 20260509140057 | 12 | 91 | 0.0 | 1.6 | 0.03 | 0.20 | 0.20 | 88 | 1009.3 |
| 20260509134544 | 12 | 91 | 0.0 | 1.6 | 0.03 | 0.20 | 0.20 | 88 | 1009.4 |
| 20260509133043 | 12 | 91 | 0.0 | 0.0 | 0.03 | 0.20 | 0.20 | 89 | 1009.6 |
| 20260509131542 | 12 | 91 | 0.0 | 0.0 | 0.03 | 0.18 | 0.18 | 89 | 1009.6 |
| 20260509130041 | 11 | 91 | 0.0 | 1.6 | 0.05 | 0.18 | 0.18 | 89 | 1009.6 |
| 20260509124539 | 11 | 91 | 0.0 | 1.6 | 0.05 | 0.18 | 0.18 | 89 | 1009.8 |
| 20260509123046 | 11 | 265 | 0.0 | 3.2 | 0.08 | 0.18 | 0.18 | 89 | 1009.8 |
| 20260509121535 | 11 | 265 | 0.0 | 1.6 | 0.05 | 0.15 | 0.15 | 89 | 1010.0 |
| 20260509120037 | 11 | 265 | 0.0 | 1.6 | 0.03 | 0.13 | 0.13 | 89 | 1010.1 |
| 20260509114534 | 11 | 265 | 0.0 | 0.0 | 0.03 | 0.13 | 0.13 | 89 | 1010.1 |
| 20260509113032 | 11 | 265 | 0.0 | 1.6 | 0.03 | 0.10 | 0.10 | 88 | 1010.1 |
| 20260509111532 | 11 | 265 | 0.0 | 1.6 | 0.03 | 0.10 | 0.10 | 88 | 1009.8 |
| 20260509110030 | 11 | 265 | 0.0 | 0.0 | 0.03 | 0.10 | 0.10 | 88 | 1009.7 |
| 20260509104528 | 11 | 265 | 3.2 | 6.4 | 0.03 | 0.10 | 0.10 | 87 | 1009.6 |
| 20260509103027 | 11 | 252 | 0.0 | 3.2 | 0.03 | 0.08 | 0.08 | 87 | 1009.4 |
| 20260509101527 | 10 | 252 | 0.0 | 3.2 | 0.05 | 0.08 | 0.08 | 87 | 1009.6 |
| 20260509100025 | 11 | 252 | 0.0 | 1.6 | 0.05 | 0.08 | 0.08 | 86 | 1009.8 |
| 20260509094523 | 11 | 252 | 0.0 | 3.2 | 0.08 | 0.08 | 0.08 | 85 | 1009.9 |
| 20260509093022 | 11 | 264 | 0.0 | 4.8 | 0.05 | 0.05 | 0.05 | 83 | 1010.2 |
| 20260509091519 | 11 | 61 | 0.0 | 3.2 | 0.03 | 0.03 | 0.03 | 82 | 1010.2 |
| 20260509090018 | 12 | 61 | 0.0 | 0.0 | 0.03 | 0.03 | 0.03 | 81 | 1010.2 |
| 20260509084524 | 12 | 41 | 0.0 | 3.2 | 0.00 | 0.00 | 0.00 | 79 | 1010.4 |
| 20260509083018 | 12 | 28 | 0.0 | 6.4 | 0.00 | 0.00 | 0.00 | 75 | 1010.2 |
| 20260509081517 | 13 | 22 | 1.6 | 9.7 | 0.00 | 0.00 | 0.00 | 70 | 1010.4 |
| 20260509080016 | 13 | 46 | 0.0 | 8.0 | 0.00 | 0.00 | 0.00 | 67 | 1010.1 |
| 20260509074512 | 13 | 25 | 1.6 | 4.8 | 0.00 | 0.00 | 0.00 | 67 | 1009.7 |
| 20260509073010 | 13 | 337 | 0.0 | 3.2 | 0.00 | 0.00 | 0.00 | 68 | 1009.1 |
| 20260509071510 | 13 | 55 | 0.0 | 3.2 | 0.00 | 0.00 | 0.00 | 69 | 1009.0 |
| 20260509070006 | 12 | 340 | 0.0 | 4.8 | 0.00 | 0.00 | 0.00 | 71 | 1009.1 |
| 20260509064505 | 12 | 334 | 0.0 | 0.0 | 0.00 | 0.00 | 0.00 | 78 | 1009.0 |
| 20260509063004 | 11 | 334 | 0.0 | 0.0 | 0.00 | 0.00 | 0.00 | 81 | 1009.0 |
| 20260509061501 | 12 | 334 | 0.0 | 0.0 | 0.00 | 0.00 | 0.00 | 80 | 1009.0 |